STARLINK-3334 (50823 NORAD) Tracking and Keplerian Element Data

This shows tracking and keplerian element data for the satellite.

Feedback or suggestion? Click here.




ElementValue
Catalog50823
NameSTARLINK-3334
Epoch Orbit383
Epoch Day22.91667824
Epoch Year2022
RAAN119.7793
Inclination53.2175
Eccentricity0.0001182
Argument of Perigee55.4381
Mean Anonmoly250.5117
Mean Motion15.75112417
Decay Rate-0.00821445
L11 50823U 22001W 22022.91667824 -.00821445 00000+0 -59297-2 0 9993
L22 50823 53.2175 119.7793 0001182 55.4381 250.5117 15.75112417 3837

Live tracking and technical data element details for STARLINK-3334 (NORAD 50823). STARLINK-3334 can be tracked NOW for your location showing map with azimuth and elevation plus other details from your city location.

Track the satellite on the map from your city or location and see movement details for azimuth, elevation, latitude, longitude, range, height, and movement on the map or in text.







IsCatalogInMostPopularTable: catalog: 50823, numindb: 2
Update: records affected: 1



GetName: 50823 STARLINK-3334

Hit Count: updated at: Mon, 24 Jan 2022 00:43:36 GMT